EW4355 Weather Reports


time (UTC)temp
C
wind
direction
speed
KPH
gust
KPH
rain 1hr
cm
rain 24hr
cm
rain mn
cm
humidity
%
barometer
mb
20260906140013 24 5 4.8 14.5 0.00 0.00 0.00 77 1015.0
20260906134512 25 355 4.8 11.3 0.00 0.00 0.00 78 1014.9
20260906133011 24 69 1.6 6.4 0.00 0.00 0.00 79 1014.9
20260906131507 24 360 1.6 4.8 0.00 0.00 0.00 80 1014.8
20260906130010 23 30 0.0 6.4 0.00 0.00 0.00 81 1014.7
20260906124605 23 44 1.6 6.4 0.00 0.00 0.00 82 1014.5
20260906123107 23 10 1.6 6.4 0.00 0.00 0.00 82 1014.4
20260906121556 23 42 1.6 6.4 0.00 0.00 0.00 82 1014.3
20260906120058 23 61 0.0 4.8 0.00 0.00 0.00 82 1014.3
20260906114552 23 39 0.0 4.8 0.00 0.00 0.00 81 1014.0
20260906113049 23 41 0.0 6.4 0.00 0.00 0.00 81 1013.8
20260906111549 23 26 1.6 6.4 0.00 0.00 0.00 81 1013.7
20260906110044 24 51 0.0 3.2 0.00 0.00 0.00 80 1013.5
20260906104542 24 51 1.6 6.4 0.00 0.00 0.00 80 1013.5
20260906103046 24 98 0.0 4.8 0.00 0.00 0.00 80 1013.4
20260906101539 25 53 1.6 6.4 0.00 0.00 0.00 79 1013.4
20260906100037 25 22 1.6 6.4 0.00 0.00 0.00 79 1013.2
20260906094539 25 55 0.0 4.8 0.00 0.00 0.00 79 1012.9
20260906093033 25 48 1.6 4.8 0.00 0.00 0.00 79 1012.9
20260906091529 25 73 1.6 6.4 0.00 0.00 0.00 78 1012.8
20260906090028 26 315 1.6 4.8 0.00 0.00 0.00 78 1012.9
20260906084527 26 360 0.0 6.4 0.00 0.00 0.00 78 1012.8
20260906083025 26 342 1.6 6.4 0.00 0.00 0.00 78 1012.7
20260906081524 26 103 1.6 6.4 0.00 0.00 0.00 77 1012.5
20260906080024 26 70 1.6 11.3 0.00 0.00 0.00 78 1012.6
20260906074520 27 43 4.8 14.5 0.00 0.00 0.00 78 1012.6
20260906073018 27 59 1.6 6.4 0.00 0.00 0.00 77 1012.7
20260906071524 27 19 1.6 6.4 0.00 0.00 0.00 77 1012.5
20260906070014 27 95 0.0 9.7 0.00 0.00 0.00 76 1012.4
20260906064512 28 66 1.6 8.0 0.00 0.00 0.00 76 1012.5
20260906063011 28 67 1.6 9.7 0.00 0.00 0.00 74 1012.5
20260906061508 28 76 1.6 11.3 0.00 0.00 0.00 73 1012.5
20260906060005 28 123 3.2 9.7 0.00 0.00 0.00 72 1012.7
20260906054503 29 5 1.6 4.8 0.00 0.00 0.00 72 1012.6
20260906053001 29 105 0.0 3.2 0.00 0.00 0.00 70 1012.6
20260906051559 30 80 0.0 4.8 0.00 0.00 0.00 69 1012.5
20260906050056 30 94 1.6 6.4 0.00 0.00 0.00 68 1012.4
20260906044556 30 113 1.6 6.4 0.00 0.00 0.00 67 1012.3
20260906043055 30 109 1.6 8.0 0.00 0.00 0.00 66 1012.1
20260906041558 31 337 3.2 6.4 0.00 0.00 0.00 65 1012.1
20260906040054 31 19 1.6 4.8 0.00 0.00 0.00 64 1012.0
20260906034602 31 5 1.6 8.0 0.00 0.00 0.00 63 1011.8
20260906033053 31 42 1.6 6.4 0.00 0.00 0.00 61 1011.9
20260906031553 31 42 1.6 6.4 0.00 0.00 0.00 60 1011.6
20260906030054 32 13 1.6 8.0 0.00 0.00 0.00 58 1011.5
20260906024555 32 91 1.6 6.4 0.00 0.00 0.00 55 1011.4
20260906023052 32 28 1.6 4.8 0.00 0.00 0.00 54 1011.2
20260906021557 32 360 0.0 6.4 0.00 0.00 0.00 52 1011.0
20260906020050 32 67 0.0 3.2 0.00 0.00 0.00 51 1010.9
20260906014552 32 76 0.0 3.2 0.00 0.00 0.00 50 1010.6
20260906013049 32 80 0.0 1.6 0.00 0.00 0.00 51 1010.5
20260906011548 32 81 0.0 3.2 0.00 0.00 0.00 51 1010.4
20260906010113 32 81 0.0 0.0 0.00 0.00 0.00 51 1010.2
20260906004605 33 81 0.0 3.2 0.00 0.00 0.00 48 1010.1
20260906003047 34 63 1.6 3.2 0.00 0.00 0.00 47 1010.1
20260906001559 34 64 0.0 3.2 0.00 0.00 0.00 45 1010.1
20260906000046 34 65 0.0 8.0 0.00 0.00 0.00 44 1010.0
20260905234546 35 58 0.0 3.2 0.00 0.00 0.00 45 1010.1
20260905233045 35 37 0.0 3.2 0.00 0.00 0.00 46 1010.1
20260905231544 35 38 0.0 6.4 0.00 0.00 0.00 43 1010.2
20260905230043 36 130 1.6 6.4 0.00 0.00 0.00 41 1010.2
20260905224544 36 340 3.2 8.0 0.00 0.00 0.00 38 1010.1
20260905223050 36 278 3.2 8.0 0.00 0.00 0.00 36 1009.9
20260905221543 37 324 1.6 9.7 0.00 0.00 0.00 36 1010.0
20260905220041 37 342 3.2 12.9 0.00 0.00 0.00 34 1010.0
20260905214545 37 278 3.2 12.9 0.00 0.00 0.00 35 1010.0
20260905213039 37 273 3.2 16.1 0.00 0.00 0.00 37 1010.0
20260905211538 38 302 1.6 12.9 0.00 0.00 0.00 35 1010.1
20260905210045 38 331 3.2 9.7 0.00 0.00 0.00 35 1010.3
20260905204535 38 271 6.4 12.9 0.00 0.00 0.00 35 1010.3
20260905203037 37 328 6.4 16.1 0.00 0.00 0.00 37 1010.3
20260905201533 38 305 0.0 12.9 0.00 0.00 0.00 37 1010.5
20260905200051 38 327 1.6 6.4 0.00 0.00 0.00 34 1010.5
20260905194530 38 305 3.2 6.4 0.00 0.00 0.00 35 1010.8
20260905193033 38 26 3.2 14.5 0.00 0.00 0.00 33 1011.0
20260905191525 38 299 1.6 14.5 0.00 0.00 0.00 36 1011.1
20260905190026 38 307 3.2 8.0 0.00 0.00 0.00 36 1011.3
20260905184532 38 360 3.2 9.7 0.00 0.00 0.00 36 1011.4
20260905183026 38 342 3.2 8.0 0.00 0.00 0.00 38 1011.7
20260905181518 37 346 3.2 12.9 0.00 0.00 0.00 39 1011.8
20260905180017 38 229 1.6 11.3 0.00 0.00 0.00 45 1011.9
20260905174518 37 294 1.6 4.8 0.00 0.00 0.00 44 1011.9
20260905173016 37 308 1.6 6.4 0.00 0.00 0.00 46 1012.1
20260905171507 37 303 1.6 6.4 0.00 0.00 0.00 43 1012.2
20260905164559 36 313 1.6 8.0 0.00 0.00 0.00 45 1012.6
20260905163056 36 292 3.2 9.7 0.00 0.00 0.00 46 1012.7
20260905161553 35 292 3.2 8.0 0.00 0.00 0.00 45 1012.9
20260905160051 35 340 1.6 8.0 0.00 0.00 0.00 47 1012.9
20260905154547 35 330 3.2 8.0 0.00 0.00 0.00 48 1012.8
20260905153043 35 294 3.2 6.4 0.00 0.00 0.00 49 1012.9
20260905151541 34 265 1.6 6.4 0.00 0.00 0.00 54 1012.8
20260905150035 33 284 0.0 6.4 0.00 0.00 0.00 53 1012.9
20260905144539 33 292 0.0 4.8 0.00 0.00 0.00 55 1012.8
20260905143034 32 278 0.0 3.2 0.00 0.00 0.00 57 1012.7
20260905141524 31 278 0.0 4.8 0.00 0.00 0.00 60 1012.7